• en France
  • Liste des pays
  • À 7 jours
  • Température de l'eau
  • Carte satellitaire
  • Carte météo
  • Widgets météo
  • user-avatar
    Se connecter

    Météo par heure à Sables d'Or

    Ce jour, 18 Novembre, Samedi

    Heure Température Précipitation Vent Pression Humidité
    00:00 +13°C° 0,3 mm 5 m/s 762 mmHg 93%
    01:00 +13°C° 0,3 mm 6 m/s 762 mmHg 93%
    02:00 +12°C° 0 mm 5 m/s 762 mmHg 92%
    03:00 +12°C° 0,6 mm 5 m/s 762 mmHg 92%
    04:00 +12°C° 0,6 mm 5 m/s 762 mmHg 92%
    05:00 +12°C° 0,6 mm 5 m/s 761 mmHg 92%
    06:00 +12°C° 0,8 mm 5 m/s 761 mmHg 92%
    07:00 +12°C° 0,8 mm 5 m/s 761 mmHg 92%
    08:00 +12°C° 0,8 mm 5 m/s 761 mmHg 92%
    09:00 +12°C° 1 mm 5 m/s 761 mmHg 92%
    10:00 +13°C° 1 mm 5 m/s 761 mmHg 91%
    11:00 +13°C° 1 mm 5 m/s 761 mmHg 91%
    12:00 +13°C° 0,8 mm 5 m/s 760 mmHg 91%
    13:00 +13°C° 0,8 mm 4 m/s 760 mmHg 91%
    14:00 +13°C° 0,8 mm 4 m/s 760 mmHg 92%
    15:00 +12°C° 0,2 mm 4 m/s 759 mmHg 92%
    16:00 +12°C° 0,2 mm 4 m/s 759 mmHg 92%
    17:00 +12°C° 0,2 mm 3 m/s 759 mmHg 92%
    18:00 +11°C° 0 mm 4 m/s 759 mmHg 92%
    19:00 +11°C° 0 mm 4 m/s 759 mmHg 91%
    20:00 +10°C° 0 mm 4 m/s 759 mmHg 91%
    21:00 +10°C° 0 mm 4 m/s 759 mmHg 91%
    22:00 +10°C° 0 mm 4 m/s 759 mmHg 91%
    23:00 +9°C° 0 mm 5 m/s 759 mmHg 91%

    Demain, 19 Novembre, Dimanche

    Heure Température Précipitation Vent Pression Humidité
    00:00 +9°C° 0 mm 5 m/s 759 mmHg 91%
    01:00 +9°C° 0 mm 5 m/s 758 mmHg 90%
    02:00 +9°C° 0 mm 5 m/s 758 mmHg 90%
    03:00 +8°C° 0,1 mm 5 m/s 758 mmHg 90%
    04:00 +8°C° 0,1 mm 5 m/s 758 mmHg 91%
    05:00 +8°C° 0,1 mm 5 m/s 758 mmHg 92%
    06:00 +8°C° 0,1 mm 5 m/s 758 mmHg 91%
    07:00 +8°C° 0,1 mm 5 m/s 758 mmHg 90%
    08:00 +7°C° 0,1 mm 4 m/s 758 mmHg 89%
    09:00 +10°C° 0,1 mm 4 m/s 758 mmHg 83%
    10:00 +11°C° 0,1 mm 4 m/s 758 mmHg 78%
    11:00 +12°C° 0,1 mm 4 m/s 758 mmHg 72%
    12:00 +12°C° 0,1 mm 4 m/s 758 mmHg 71%
    13:00 +12°C° 0,1 mm 4 m/s 758 mmHg 70%
    14:00 +12°C° 0,1 mm 3 m/s 757 mmHg 69%
    15:00 +11°C° 0,3 mm 3 m/s 757 mmHg 72%
    16:00 +11°C° 0,3 mm 4 m/s 757 mmHg 74%
    17:00 +10°C° 0,3 mm 4 m/s 757 mmHg 77%
    18:00 +10°C° 1,1 mm 4 m/s 757 mmHg 78%
    19:00 +10°C° 1,1 mm 3 m/s 757 mmHg 79%
    20:00 +9°C° 1,1 mm 3 m/s 757 mmHg 81%
    21:00 +8°C° 1,2 mm 4 m/s 756 mmHg 80%
    22:00 +8°C° 1,2 mm 4 m/s 756 mmHg 79%
    23:00 +8°C° 1,2 mm 4 m/s 756 mmHg 79%

    Après-demain, 20 Novembre, Lundi

    Heure Température Précipitation Vent Pression Humidité
    00:00 +8°C° 1,4 mm 5 m/s 756 mmHg 79%
    01:00 +8°C° 1,4 mm 5 m/s 756 mmHg 79%
    02:00 +8°C° 1,4 mm 6 m/s 756 mmHg 79%
    03:00 +7°C° 0,2 mm 6 m/s 756 mmHg 79%
    04:00 +6°C° 0,2 mm 7 m/s 756 mmHg 79%
    05:00 +6°C° 0,2 mm 7 m/s 756 mmHg 79%
    06:00 +6°C° 0 mm 7 m/s 757 mmHg 77%
    07:00 +5°C° 0 mm 7 m/s 757 mmHg 75%
    08:00 +5°C° 0 mm 7 m/s 758 mmHg 73%
    09:00 +6°C° 0 mm 7 m/s 758 mmHg 67%
    10:00 +6°C° 0 mm 7 m/s 758 mmHg 62%
    11:00 +8°C° 0 mm 7 m/s 758 mmHg 56%
    12:00 +7°C° 0,1 mm 8 m/s 758 mmHg 56%
    13:00 +7°C° 0,1 mm 8 m/s 758 mmHg 56%
    14:00 +7°C° 0,1 mm 9 m/s 758 mmHg 56%
    15:00 +7°C° 0,1 mm 8 m/s 758 mmHg 58%
    16:00 +6°C° 0,1 mm 8 m/s 759 mmHg 59%
    17:00 +6°C° 0,1 mm 8 m/s 759 mmHg 61%
    18:00 +6°C° 0,1 mm 8 m/s 759 mmHg 64%
    19:00 +5°C° 0,1 mm 8 m/s 760 mmHg 68%
    20:00 +5°C° 0,1 mm 8 m/s 760 mmHg 71%
    21:00 +5°C° 0 mm 8 m/s 760 mmHg 70%
    22:00 +4°C° 0 mm 8 m/s 761 mmHg 69%
    23:00 +4°C° 0 mm 8 m/s 761 mmHg 67%

    21 Novembre, Mardi

    Heure Température Précipitation Vent Pression Humidité
    00:00 +4°C° 0 mm 8 m/s 761 mmHg 68%
    01:00 +3°C° 0 mm 7 m/s 761 mmHg 69%
    02:00 +3°C° 0 mm 7 m/s 762 mmHg 70%
    03:00 +3°C° 0 mm 7 m/s 762 mmHg 72%
    04:00 +2°C° 0 mm 7 m/s 762 mmHg 73%
    05:00 +2°C° 0 mm 7 m/s 762 mmHg 75%
    06:00 +2°C° 0 mm 7 m/s 762 mmHg 76%
    07:00 +2°C° 0 mm 6 m/s 763 mmHg 76%
    08:00 +2°C° 0 mm 6 m/s 763 mmHg 76%
    09:00 +3°C° 0 mm 6 m/s 763 mmHg 69%
    10:00 +4°C° 0 mm 6 m/s 763 mmHg 63%
    11:00 +7°C° 0 mm 6 m/s 763 mmHg 56%
    12:00 +7°C° 0 mm 6 m/s 763 mmHg 52%
    13:00 +8°C° 0 mm 6 m/s 762 mmHg 49%
    14:00 +9°C° 0 mm 6 m/s 762 mmHg 45%
    15:00 +8°C° 0 mm 6 m/s 761 mmHg 47%
    16:00 +8°C° 0 mm 6 m/s 761 mmHg 49%
    17:00 +7°C° 0 mm 6 m/s 761 mmHg 52%
    18:00 +6°C° 0 mm 7 m/s 761 mmHg 54%
    19:00 +6°C° 0 mm 7 m/s 761 mmHg 56%
    20:00 +6°C° 0 mm 8 m/s 761 mmHg 57%
    21:00 +6°C° 0 mm 8 m/s 760 mmHg 59%
    22:00 +6°C° 0 mm 8 m/s 760 mmHg 60%
    23:00 +6°C° 0 mm 8 m/s 760 mmHg 62%

    22 Novembre, Mercredi

    Heure Température Précipitation Vent Pression Humidité
    00:00 +6°C° 0 mm 8 m/s 760 mmHg 62%
    01:00 +6°C° 0 mm 8 m/s 760 mmHg 62%
    02:00 +6°C° 0 mm 8 m/s 760 mmHg 63%
    03:00 +6°C° 0 mm 8 m/s 760 mmHg 66%
    04:00 +6°C° 0 mm 8 m/s 760 mmHg 69%
    05:00 +6°C° 0 mm 8 m/s 760 mmHg 72%
    06:00 +6°C° 0,1 mm 8 m/s 760 mmHg 75%
    07:00 +6°C° 0,1 mm 7 m/s 761 mmHg 78%
    08:00 +5°C° 0,1 mm 7 m/s 761 mmHg 81%
    09:00 +6°C° 0,2 mm 7 m/s 762 mmHg 76%
    10:00 +6°C° 0,2 mm 7 m/s 762 mmHg 71%
    11:00 +6°C° 0,2 mm 7 m/s 763 mmHg 66%
    12:00 +7°C° 0 mm 6 m/s 763 mmHg 62%
    13:00 +8°C° 0 mm 6 m/s 764 mmHg 59%
    14:00 +8°C° 0 mm 6 m/s 764 mmHg 55%
    15:00 +7°C° 0 mm 6 m/s 765 mmHg 55%
    16:00 +7°C° 0 mm 5 m/s 765 mmHg 56%
    17:00 +6°C° 0 mm 5 m/s 766 mmHg 57%
    18:00 +6°C° 0 mm 5 m/s 766 mmHg 57%
    19:00 +6°C° 0 mm 4 m/s 767 mmHg 58%
    20:00 +5°C° 0 mm 4 m/s 767 mmHg 59%
    21:00 +5°C° 0 mm 3 m/s 768 mmHg 60%
    22:00 +6°C° 0 mm 2 m/s 768 mmHg 61%
    23:00 +5°C° 0 mm 2 m/s 768 mmHg 62%

    23 Novembre, Jeudi

    Heure Température Précipitation Vent Pression Humidité
    00:00 +6°C° 0 mm 1 m/s 768 mmHg 62%
    01:00 +6°C° 0 mm 1 m/s 768 mmHg 63%
    02:00 +6°C° 0 mm 1 m/s 768 mmHg 64%
    03:00 +6°C° 0 mm 1 m/s 768 mmHg 64%
    04:00 +6°C° 0 mm 1 m/s 768 mmHg 65%
    05:00 +6°C° 0 mm 1 m/s 768 mmHg 65%
    06:00 +6°C° 0 mm 1 m/s 769 mmHg 66%
    07:00 +7°C° 0 mm 1 m/s 769 mmHg 66%
    08:00 +7°C° 0 mm 1 m/s 769 mmHg 67%
    09:00 +7°C° 0 mm 2 m/s 769 mmHg 63%
    10:00 +8°C° 0 mm 2 m/s 770 mmHg 59%
    11:00 +10°C° 0 mm 2 m/s 770 mmHg 55%
    12:00 +10°C° 0 mm 2 m/s 769 mmHg 55%
    13:00 +12°C° 0 mm 2 m/s 769 mmHg 56%
    14:00 +11°C° 0 mm 3 m/s 769 mmHg 56%
    15:00 +10°C° 0 mm 3 m/s 769 mmHg 60%
    16:00 +10°C° 0 mm 3 m/s 769 mmHg 64%
    17:00 +9°C° 0 mm 3 m/s 769 mmHg 69%
    18:00 +9°C° 0 mm 3 m/s 769 mmHg 71%
    19:00 +9°C° 0 mm 3 m/s 769 mmHg 72%
    20:00 +9°C° 0 mm 3 m/s 769 mmHg 74%
    21:00 +9°C° 0 mm 3 m/s 769 mmHg 76%
    22:00 +8°C° 0 mm 3 m/s 770 mmHg 77%
    23:00 +8°C° 0 mm 3 m/s 770 mmHg 78%
    Voir plus